User: anonymous   Login
Location: Mentone
(34.5413°N, 85.5351°W)
Time: 00:49:34
(UTC-05:00)
Language:

ADEOS Rocket - Orbit

View from above orbital plane
View from above orbital plane
View from above satellite
View from above satellite

Ground track
Ground track

The orbit data is extracted from the following two-line orbital elements,

1 24279U 96046C   15087.78998418  .00000041  00000-0  97084-4 0  9991
2 24279 098.7072 124.5094 0300061 198.9711 292.1767 13.47018936915001
Epoch (UTC): 28 March 2015 18:57:34
Eccentricity: 0.0300061
inclination: 98.7072°
perigee height: 859 km
apogee height: 1307 km
right ascension of ascending node: 124.5094°
argument of perigee: 198.9711°
revolutions per day: 13.47018936
mean anomaly at epoch: 292.1767°
orbit number at epoch: 91500

The dashed part of the orbit path shows where the satellite is in the earth's shadow,  

DLR